Location: Chiniac
(45.2769°N, 2.0372°E)
Time: 08:16:06
(UTC+00:00)

Daily predictions for brighter satellites

Satellite Brightness Start Highest point End
(mag) Time Altitude Azimuth Time Altitude Azimuth Time Altitude Azimuth
Envisat 3.3 17:03:10 10° S 17:08:14 77° WSW 17:13:21 10° NNW
Cosmos 1300 2.9 17:06:14 10° S 17:09:55 49° E 17:13:38 10° NNE
Landsat 5 4.0 17:06:10 10° N 17:10:02 60° WNW 17:13:58 10° SSW
USA 308 3.8 17:06:31 10° NW 17:10:29 35° NNE 17:14:25 10° E
Cosmos 1400 Rocket 3.6 17:07:55 10° SSE 17:11:36 33° E 17:15:16 10° NNE
Cosmos 1697 Rocket 3.9 17:08:54 10° SSE 17:12:57 21° E 17:17:01 10° NE
CZ-4B R/B 1.7 17:11:15 10° NNE 17:14:17 39° E 17:17:14 10° S
Cosmos 1825 Rocket 3.6 17:10:21 10° N 17:14:50 87° E 17:19:14 10° S
ERS-2 2.2 17:14:33 10° NNE 17:18:08 54° ESE 17:21:42 10° S
Helios 1A Rocket 4.2 17:15:43 10° ESE 17:18:50 21° ENE 17:21:58 10° NNE
BREEZE-M TANK 3.5 17:09:40 10° W 17:21:13 90° NNW 17:24:55 10° E
YAOGAN 1 4.0 17:18:26 10° ESE 17:21:17 18° ENE 17:24:10 10° NNE
Meteor 2-21 Rocket 4.4 17:16:22 10° N 17:22:34 79° E 17:28:40 10° SSE
NOAA 11 4.2 17:20:38 10° SSE 17:25:59 63° ENE 17:31:22 10° N
Cosmos 44 3.5 17:22:11 10° SW 17:26:40 67° NW 17:31:28 10° NNE
CZ-2D R/B 4.3 17:23:38 10° SE 17:26:46 25° ENE 17:29:54 10° NNE
Cosmos 1340 3.0 17:23:27 10° N 17:27:05 43° ENE 17:30:41 10° SSE
Okean O Rocket 1.9 17:23:32 10° S 17:27:53 73° WSW 17:32:15 10° NNW
Cosmos 2228 3.2 17:23:59 10° SSW 17:28:14 75° W 17:32:32 10° N
Cosmos 1726 Rocket 3.5 17:24:43 10° S 17:29:04 82° E 17:33:29 10° N
CZ-4 R/B 2.5 17:26:43 10° ESE 17:29:38 21° ENE 17:32:33 10° NNE
SL-4 R/B 2.8 17:30:37 10° NW 17:33:49 31° N 17:36:33 14° ENE
Cosmos 1346 Rocket 3.7 17:31:23 10° NNE 17:34:50 27° ENE 17:38:17 10° SE
Aureole 3 2.8 17:31:51 10° S 17:34:51 49° E 17:37:45 10° NNE
CORIOLIS 4.4 17:29:45 10° S 17:35:05 78° WSW 17:40:29 10° NNW
Cosmos 2058 3.8 17:32:09 10° NNE 17:35:39 27° ENE 17:39:09 10° SE
Cosmos 1980 Rocket 3.6 17:33:09 10° SE 17:36:40 17° E 17:39:22 12° ENE
Cosmos 2297 Rocket 2.2 17:32:54 10° NNW 17:38:36 76° ENE 17:44:15 10° SSE
Timation 2 Rocket 4.5 17:33:38 10° NNW 17:40:15 73° WSW 17:47:03 10° SSE
In-Cosmos 22 Rocket 4.1 17:35:10 10° N 17:40:30 61° ENE 17:45:55 10° SSE
CZ-2C R/B 3.9 17:38:12 10° SE 17:43:19 34° ENE 17:48:19 10° N
Cosmos 1315 Rocket 3.7 17:42:05 10° SSE 17:45:25 26° E 17:48:48 10° NE
Cosmos 1606 Rocket 4.5 17:41:18 10° SSW 17:45:34 53° WNW 17:49:55 10° N
Cosmos 1553 Rocket 4.0 17:43:07 10° S 17:49:19 61° E 17:55:29 10° NNE
Cosmos 220 Rocket 4.4 17:46:49 10° S 17:50:56 43° ESE 17:55:08 10° NNE
BREEZE-M R/B 3.7 17:50:31 10° WNW 17:54:10 54° NNE 17:59:00 18° E
Meteor 2-10 Rocket 3.7 17:50:08 10° SSE 17:55:10 47° E 18:00:04 10° NNE
USA 305 3.1 17:51:16 10° NW 17:55:31 56° NNE 17:58:11 21° E
SKYMED 2 3.5 17:52:27 10° NNE 17:56:48 66° ESE 18:01:06 10° S
Cosmos 1455 2.7 17:53:49 10° SSE 17:57:15 34° E 18:00:44 10° NNE
NOSS 3-4 (A) 4.5 17:55:14 10° NNW 18:01:26 35° NE 18:05:39 20° E
NOSS 3-4 (C) 4.5 17:55:20 10° NNW 18:01:32 35° NE 18:05:43 20° E
SeaSat 1 3.8 18:00:38 19° ENE 18:01:44 21° NE 18:05:20 10° N
USA 306 3.0 17:57:47 10° NW 18:02:02 60° NNE 18:04:25 24° ESE
H-2A R/B 2.7 17:58:55 10° SE 18:03:47 35° ENE 18:08:42 10° N
Okean-O 2.6 18:00:45 10° SSE 18:05:05 57° ENE 18:09:27 10° N
FALCON 9 DEB 4.4 18:03:29 10° W 18:06:25 31° NNW 18:07:57 20° NNE
FALCON 9 DEB 4.4 18:05:31 10° W 18:08:22 29° NNW 18:09:47 20° NNE
MOS 1 Rocket 4.0 18:04:57 10° NNE 18:09:15 33° E 18:13:46 10° SSE
SL-08 R/B 4.4 18:03:33 10° N 18:09:45 89° E 18:15:51 10° S
Cosmos 2278 4.3 18:04:51 10° SSE 18:09:52 33° ESE 18:12:45 21° ENE
NOSS 3-3 (A) 3.9 18:04:51 10° SSW 18:10:33 65° ESE 18:16:10 14° NE
NOSS 3-3 (C) 3.9 18:04:58 10° SSW 18:10:40 64° ESE 18:16:14 14° NE
Aureole 3 Rocket 3.7 18:06:47 10° SSW 18:10:51 66° WNW 18:16:36 10° N
Cosmos 2219 3.9 18:06:29 10° NNW 18:12:08 58° WSW 18:17:45 10° S
USA 215 4.2 18:10:10 18° ENE 18:14:06 33° N 18:19:48 10° NW
Cosmos 1745 Rocket 3.9 18:09:56 10° N 18:16:16 74° E 18:22:35 10° SSE
Cosmos 44 Rocket 3.5 18:13:40 10° S 18:18:10 45° ESE 18:19:58 31° ENE
Lacrosse 5 3.4 18:14:19 10° NW 18:18:20 23° N 18:20:11 19° NE
Cosmos 1408 2.4 18:15:42 10° N 18:19:22 77° E 18:23:02 10° SSE
GEOS 3 Rocket 4.2 18:17:20 28° E 18:19:26 39° NE 18:24:25 10° NNW
Cosmos 2082 3.6 18:13:43 10° NNW 18:19:28 74° ENE 18:25:12 10° SSE
ARGOS 3.7 18:17:21 25° ESE 18:19:39 36° ENE 18:24:34 10° N
Cosmos 1656 4.1 18:17:27 10° SW 18:22:57 62° WNW 18:28:35 10° NNE
ATLAS 2AS CENTAUR R/B 3.5 18:16:31 10° NNW 18:23:29 38° NE 18:26:17 28° ENE
Cosmos 2058 Rocket 4.4 18:19:21 10° SSW 18:23:37 43° WNW 18:27:57 10° N
Cosmos 968 Rocket 3.8 18:19:35 10° NNW 18:24:46 66° WSW 18:29:52 10° S
Cosmos 1386 Rocket 4.4 18:18:36 10° N 18:25:03 81° E 18:31:22 10° S
Cosmos 1689 Rocket 3.0 18:22:41 10° N 18:25:29 46° WNW 18:28:15 10° SSW
FALCON 9 DEB 3.9 18:30:01 10° NW 18:32:58 40° N 18:32:58 40° N
Cosmos 1076 Rocket 3.3 18:29:30 10° N 18:33:46 82° E 18:38:02 10° S
Cosmos 2369 3.6 18:28:28 10° SSW 18:34:11 79° ESE 18:39:11 14° NNE
Cosmos 1892 4.0 18:32:15 10° NNW 18:35:58 43° W 18:39:38 10° SSW
Cosmos 1939 Rocket 4.4 18:32:30 10° SSW 18:36:11 37° W 18:39:50 10° NNW
CSL-04 Rocket 3.6 18:35:26 10° SSE 18:40:56 71° ENE 18:46:26 10° N
Cosmos 2227 Rocket 3.4 18:37:41 10° NW 18:42:59 42° WSW 18:48:16 10° S
COSMO-SKYMED 1 4.0 18:40:43 10° N 18:44:46 39° WNW 18:48:48 10° SW
Cosmos 2263 Rocket 2.8 18:40:03 10° NNW 18:45:07 37° NE 18:45:07 37° NE
Cosmos 1709 Rocket 3.9 18:39:22 10° N 18:45:47 71° E 18:52:08 10° SSE
USA 307 2.9 18:41:33 10° WNW 18:45:50 74° SW 18:46:28 60° SSE
CZ-4C R/B 3.7 18:42:13 10° NNW 18:48:18 32° NE 18:49:38 30° NE
USA 308 3.0 18:46:32 10° WNW 18:50:48 68° SW 18:51:15 62° S
Cosmos 1825 2.4 18:47:46 10° NNW 18:51:32 68° W 18:52:23 49° SSW
Helios 1A Rocket 4.4 18:49:58 10° SSW 18:53:46 37° W 18:57:36 10° NNW
Cosmos 1697 Rocket 3.1 18:50:50 10° SW 18:56:23 62° WNW 19:01:26 13° NNE
YAOGAN 1 3.3 18:52:47 10° S 18:57:00 52° W 19:01:14 10° NNW
Cosmos 883 Rocket 4.4 18:53:04 10° S 18:59:14 90° W 19:05:23 10° N
Cosmos 1812 Rocket 4.2 18:59:53 10° SSW 19:04:11 54° WNW 19:08:30 10° N
CZ-4 R/B 3.0 19:00:59 10° SSW 19:04:29 32° W 19:07:59 10° NNW
Milstar 3 4.4 19:03:19 10° SW 19:07:49 19° S 19:09:47 17° SSE
Cosmos 2315 Rocket 3.9 19:03:50 10° S 19:10:02 89° E 19:16:17 10° N
Atlas Centaur 2 4.2 19:03:23 10° WSW 19:10:12 28° S 19:12:40 24° SSE
SL-4 R/B 3.4 19:10:03 10° WNW 19:12:08 32° NW 19:12:08 32° NW
Cosmos 2151 4.4 19:11:57 10° NNW 19:14:07 29° NNW 19:14:07 29° NNW
Cosmos 1980 Rocket 2.2 19:14:21 10° SSW 19:19:59 74° WNW 19:21:13 55° N
SeaSat 1 3.4 19:40:26 42° NW 19:40:26 42° NW 19:43:44 10° NNW
H-2A R/B 3.6 19:38:13 10° SSW 19:43:09 36° W 19:48:10 10° NNW
NOSS 3-4 (A) 3.9 19:45:54 10° NW 19:52:56 73° SW 19:53:07 72° SW
NOSS 3-4 (C) 3.9 19:46:00 10° NW 19:53:02 73° WSW 19:53:11 73° SW
USA 215 3.8 19:57:31 49° N 19:57:31 49° N 20:02:43 10° NW
Lacrosse 5 3.9 19:57:25 10° NW 19:59:23 23° NNW 19:59:23 23° NNW
ATLAS 2AS CENTAUR R/B 3.2 20:07:37 10° NW 20:13:44 57° WNW 20:13:44 57° WNW
Cosmos 2263 Rocket 4.1 20:24:01 10° NW 20:26:50 26° WNW 20:26:50 26° WNW
CZ-4C R/B 3.8 20:30:24 10° NW 20:34:50 43° NW 20:34:50 43° NW
